Wind_Speed
41 38 35 35 34 34 34 34 34 33 32 32 32 31 30 28 26 24 23 25 26 27 32 34 28 23 22 19 16 18 20 19 17 20 24 23 22 20 15 18 18 15 18 18 16 16 18 17 16 17 17 13 10 11 12 10 10 7 2 2 2 2 3 4 5 5 3 2 3 3 6 7 6 7 10 9 10 13 9 7 7 6 6 5 5 5 9 16
44 41 37 36 34 33 33 33 32 33 34 33 32 32 31 29 27 26 23 23 23 22 27 34 33 28 25 22 18 17 20 21 18 23 27 23 21 20 15 16 19 16 17 19 18 19 21 20 19 18 19 15 10 12 11 9 11 7 3 3 4 3 3 4 5 4 2 2 4 2 4 7 7 8 11 6 6 12 8 6 7 7 8 7 8 9 11 16
46 43 39 36 35 34 33 32 31 31 32 32 33 32 32 31 29 27 25 23 22 21 22 27 32 33 29 24 19 16 19 20 20 27 28 24 21 20 17 18 20 19 18 20 20 21 21 20 20 20 19 15 10 13 11 9 10 7 4 4 5 5 2 3 4 4 3 3 4 3 3 6 6 8 9 7 7 9 8 9 9 9 11 10 10 12 14 17
47 45 42 37 35 35 33 32 31 30 30 29 31 32 32 31 30 28 26 24 22 20 21 23 24 28 29 27 23 18 15 13 19 30 28 24 22 21 20 19 22 22 19 20 20 21 20 19 20 20 18 11 9 12 10 10 9 6 5 4 5 5 2 3 4 4 4 3 4 4 4 4 5 6 7 9 7 4 10 15 12 11 13 14 14 15 16 17
48 47 44 40 36 35 33 32 30 30 30 28 28 29 31 31 30 30 27 25 23 21 21 22 21 22 25 28 27 21 13 5 10 22 26 26 24 23 22 21 24 25 22 23 21 20 20 19 19 18 14 8 8 8 8 13 10 4 4 4 6 7 4 4 5 4 3 2 3 5 5 4 4 5 7 9 6 5 10 13 14 13 13 13 15 17 18 19
48 47 46 42 39 36 34 32 30 29 29 29 27 27 29 30 30 30 29 27 24 23 21 21 21 22 24 24 23 21 16 4 1 11 22 28 27 24 24 23 28 29 26 25 22 19 19 20 17 15 12 7 8 6 6 13 10 4 4 4 8 8 5 6 7 5 3 2 3 4 3 3 2 4 7 9 9 7 6 6 9 11 11 12 14 17 19 20
48 48 47 44 41 38 35 33 31 30 29 29 28 27 27 28 30 29 29 28 26 25 23 22 22 23 24 22 19 18 22 16 2 6 13 24 30 26 25 26 31 32 29 27 24 21 20 20 17 15 10 4 7 8 7 11 9 4 3 5 8 7 6 9 9 6 3 2 2 2 2 3 2 3 4 8 12 8 6 7 7 8 11 15 18 18 19 19
48 48 48 45 42 39 38 36 33 32 30 29 27 27 26 26 28 28 28 27 27 26 24 23 23 24 25 24 21 15 23 28 13 3 4 16 31 27 27 30 33 33 31 30 28 26 23 19 19 16 8 3 7 9 9 8 5 5 4 7 8 5 6 10 9 6 3 2 3 4 5 6 6 4 5 9 11 8 8 11 11 10 14 19 21 20 20 20
47 47 48 47 44 41 39 38 35 33 31 30 28 27 26 25 25 27 27 26 26 26 25 24 24 26 25 25 23 14 25 36 23 15 11 10 28 30 30 33 35 34 31 30 29 28 25 21 21 16 7 7 7 9 13 8 4 8 9 7 8 6 6 8 9 6 3 3 4 5 7 10 8 5 7 12 12 11 11 13 13 13 16 20 21 22 22 22
46 46 46 46 45 42 40 38 36 34 32 30 29 28 27 25 24 24 26 26 26 26 25 24 24 26 26 27 23 12 26 37 30 28 18 10 26 32 32 34 36 35 31 30 29 29 27 23 24 18 7 6 8 10 14 11 6 11 13 9 10 10 8 8 8 7 4 4 6 6 7 12 10 4 5 8 8 9 12 13 15 15 17 20 21 23 24 24
45 45 44 44 44 42 40 37 35 34 32 31 30 29 28 25 24 23 24 25 25 25 25 24 25 26 26 28 25 15 20 26 26 32 24 12 22 30 33 34 35 36 32 30 29 30 29 25 27 20 6 4 7 8 12 13 8 11 15 9 7 8 7 8 8 8 5 4 7 5 6 12 9 4 7 11 9 9 12 12 15 18 19 20 21 23 25 26
44 44 43 43 42 41 39 37 35 33 31 31 30 30 29 27 24 22 23 24 25 25 24 23 24 25 26 28 30 23 15 14 18 26 27 14 13 23 31 33 34 34 33 32 30 30 28 25 29 22 8 7 7 3 9 15 10 11 14 7 3 3 4 8 9 9 6 3 4 2 6 11 8 7 11 14 14 15 16 15 15 19 21 22 22 25 26 26
44 43 43 42 41 40 38 36 35 33 31 30 30 30 30 28 26 23 22 23 24 25 23 22 22 25 26 22 26 27 15 11 14 20 26 19 9 17 28 31 32 31 32 32 31 30 24 21 28 23 11 11 8 2 3 9 9 9 9 4 3 2 4 8 9 8 6 5 4 3 5 11 8 12 17 18 20 19 18 19 19 21 23 23 24 25 26 27
44 43 42 41 40 39 38 36 33 32 30 28 28 29 29 29 27 24 22 22 24 25 23 20 22 26 25 18 19 26 21 14 15 19 26 26 15 13 22 29 29 29 30 29 30 30 19 17 26 21 11 10 7 5 3 1 4 5 3 1 3 3 3 7 9 8 5 8 8 7 5 12 5 8 12 14 18 18 18 19 21 25 26 26 26 26 26 27
45 43 41 40 39 39 37 35 32 31 29 28 28 27 28 29 28 26 23 21 22 24 22 20 22 21 17 16 16 20 23 19 17 20 24 29 26 17 18 26 28 28 29 27 28 27 16 16 24 17 9 7 7 6 3 1 1 1 3 2 3 4 2 4 8 13 9 7 10 8 4 11 6 10 15 15 19 19 19 19 19 24 28 28 27 26 26 26
45 43 42 39 38 38 37 35 32 30 29 27 27 26 27 28 28 27 23 21 21 23 23 20 21 18 8 9 14 15 22 23 21 21 21 25 31 28 20 21 26 27 25 21 22 23 17 16 20 15 9 6 6 5 4 2 2 2 4 3 3 5 2 4 5 15 18 8 7 9 6 7 4 9 15 13 18 21 19 20 19 22 28 29 27 26 27 27
46 44 42 40 38 38 38 36 33 30 28 27 26 24 25 27 26 25 23 22 21 22 23 20 22 19 8 6 11 16 21 23 24 23 21 21 25 31 27 20 23 24 20 17 18 21 18 14 14 10 6 4 4 5 4 4 6 4 3 2 3 4 4 3 4 9 16 8 6 9 9 13 8 6 10 7 8 14 18 22 22 22 27 29 28 27 28 29
46 44 42 41 39 39 39 37 34 31 28 27 25 23 23 24 23 23 23 23 20 18 18 19 18 11 9 14 14 16 22 22 24 26 23 22 22 29 31 23 21 20 16 13 15 19 16 10 9 5 3 4 5 7 6 6 7 6 5 3 2 3 5 6 4 5 8 7 8 7 8 19 15 9 18 19 13 11 16 21 22 24 27 28 28 29 30 31
46 44 43 41 39 40 39 37 35 31 29 26 24 24 23 23 21 20 22 23 21 14 8 18 24 12 7 21 22 18 20 21 24 27 27 28 27 27 30 26 22 17 10 8 12 18 14 5 5 4 6 9 8 9 7 4 7 8 8 6 4 4 5 6 5 5 6 6 8 8 10 18 15 9 17 25 20 16 18 20 22 24 24 24 25 28 30 33
45 44 42 41 39 39 37 36 34 30 29 26 27 27 23 22 15 12 20 25 29 19 8 23 38 25 5 9 21 20 18 21 26 30 31 31 31 27 25 25 22 12 6 4 7 15 15 6 5 9 11 12 11 10 6 4 7 9 8 7 6 5 5 4 5 6 5 5 7 10 11 15 16 10 14 21 18 16 20 21 23 25 25 25 25 27 29 33
44 42 41 40 39 38 36 35 33 30 29 28 32 29 25 27 15 12 25 24 33 30 12 21 38 29 4 3 20 24 21 22 24 30 32 32 33 25 21 22 17 9 10 9 4 8 11 7 11 14 13 12 12 12 10 5 6 8 7 6 6 5 5 5 4 5 4 4 6 7 9 15 17 11 12 15 11 15 22 20 23 28 29 31 31 32 32 32
42 40 40 39 37 37 34 34 32 30 29 28 33 30 29 35 21 20 29 14 23 33 15 16 32 27 9 7 21 25 22 20 18 27 33 33 33 23 22 21 12 10 13 10 4 4 6 8 16 18 12 11 11 12 12 8 6 6 5 5 5 4 3 5 4 3 4 4 5 5 6 12 17 12 11 14 14 20 26 24 27 30 30 32 35 36 35 34
42 40 39 38 36 36 33 33 31 30 31 30 35 34 34 37 20 17 26 9 8 28 20 15 27 30 16 9 21 26 23 19 18 27 35 36 32 26 24 19 12 12 12 10 8 6 7 12 18 15 9 9 10 11 12 8 6 4 4 5 4 4 3 4 4 2 3 3 2 3 4 7 11 9 10 17 22 25 29 30 31 32 32 35 37 37 37 37
42 40 38 37 36 35 32 31 30 30 33 33 37 38 35 35 19 13 20 7 3 17 25 21 21 26 19 10 19 24 20 18 18 25 35 38 32 25 22 20 16 12 12 16 14 11 11 7 11 13 8 9 10 10 11 8 6 5 5 6 4 5 7 5 3 1 1 2 0 1 4 5 8 10 11 14 16 22 29 29 30 34 36 37 38 39 40 42
42 40 39 38 36 34 32 31 32 33 34 34 37 37 34 33 23 15 14 4 4 8 19 21 16 17 20 14 16 19 14 14 17 25 36 40 35 24 17 20 17 11 15 20 15 13 12 6 16 15 9 11 10 10 13 10 7 6 8 9 7 8 8 5 3 3 3 4 3 1 4 5 6 10 12 8 4 12 19 18 24 33 35 35 37 41 43 44
42 41 39 39 37 35 34 32 35 35 33 36 38 36 33 32 25 18 11 3 2 4 9 17 15 14 22 19 17 17 8 9 17 26 35 39 38 27 15 14 11 12 19 17 10 7 6 10 16 13 11 13 11 10 13 13 8 7 9 11 9 9 7 5 5 4 2 4 3 2 5 6 5 5 8 6 4 9 11 10 20 30 31 33 36 41 43 44
42 41 39 38 37 38 37 35 37 36 35 38 39 36 33 31 26 19 10 1 3 6 8 13 14 14 20 20 24 18 3 9 19 25 35 36 34 26 14 11 9 11 15 10 8 6 7 13 12 11 14 12 10 10 12 14 9 6 7 12 11 8 7 5 6 4 3 2 3 1 4 5 6 6 7 7 7 10 10 10 17 24 29 32 35 38 40 42
40 40 38 36 36 38 39 36 37 39 39 37 38 37 29 28 27 16 6 3 4 8 7 11 13 14 19 23 30 20 4 14 15 18 36 39 33 21 9 13 13 12 17 13 10 10 11 16 15 17 17 11 14 15 13 15 9 4 6 12 10 7 5 4 5 3 1 2 4 3 3 3 7 6 5 5 7 9 12 13 13 20 29 33 36 38 38 39
41 39 38 37 35 36 36 33 37 40 37 34 36 35 27 28 25 10 2 4 3 4 5 14 15 13 20 22 27 24 10 10 7 11 32 36 31 19 5 16 18 11 19 19 14 9 8 17 22 20 15 12 16 14 14 16 9 3 7 8 4 4 4 4 4 2 2 2 7 6 5 4 7 5 3 3 5 8 10 10 12 21 30 33 35 38 39 38
41 40 38 37 36 36 34 32 36 38 36 33 33 34 32 30 19 5 6 5 3 2 5 14 16 17 23 16 14 22 14 7 6 13 25 27 29 21 7 16 18 8 13 16 14 6 1 10 17 14 13 12 10 9 15 19 11 7 7 7 6 3 4 3 2 3 1 6 9 9 10 6 6 4 5 5 5 8 9 9 11 18 26 30 32 35 36 37
38 38 38 38 38 39 38 37 36 36 38 34 33 38 33 20 8 5 9 2 3 5 6 10 14 18 23 14 9 17 13 5 8 13 14 12 18 16 6 8 10 6 9 11 12 7 1 5 7 10 14 10 8 7 9 12 13 10 5 6 5 1 2 1 1 2 4 8 6 10 12 8 8 6 3 5 6 6 8 9 10 13 20 26 26 27 29 31
37 37 38 39 40 40 41 40 37 36 37 35 38 40 24 7 4 7 5 3 1 5 7 9 11 14 19 17 12 15 12 7 8 10 10 7 7 10 8 7 8 6 7 9 10 9 6 5 6 7 11 12 12 7 1 2 6 5 5 7 5 3 2 3 4 3 7 6 2 6 10 7 11 7 4 9 11 10 12 15 15 14 18 21 20 22 24 24
37 37 37 39 39 40 41 38 37 37 36 37 40 31 13 4 8 9 7 4 2 3 8 13 13 14 18 17 12 13 13 10 9 9 11 11 9 12 15 14 13 9 6 8 11 9 6 6 9 6 4 13 14 8 5 3 4 7 8 9 8 5 5 7 7 5 6 4 1 3 4 3 6 5 7 13 16 17 19 22 23 20 21 24 23 24 23 19
37 37 37 38 38 40 40 38 39 39 39 42 34 17 7 7 8 11 12 6 2 2 8 13 15 15 15 15 12 14 12 8 11 11 9 11 9 10 15 15 16 11 3 6 8 10 11 9 11 12 9 16 17 14 16 12 11 14 10 9 10 7 6 7 7 7 6 1 1 3 3 4 4 3 7 12 17 20 22 24 25 24 26 27 27 29 28 20
36 36 37 37 38 40 40 41 41 41 44 42 22 7 8 7 7 12 11 5 1 2 6 10 14 14 12 12 11 14 13 8 12 12 8 11 10 10 13 13 17 13 5 6 4 7 13 8 10 18 17 21 21 18 17 13 9 9 5 7 10 6 4 2 3 6 4 1 2 4 4 4 5 6 8 9 13 17 22 24 23 24 25 24 25 31 31 24
35 36 37 38 41 43 42 44 42 43 48 35 11 6 10 8 7 9 9 8 5 6 7 9 12 11 9 8 7 13 13 6 10 11 7 9 10 12 13 9 14 17 10 8 3 4 10 6 9 17 13 20 27 20 18 16 9 5 5 8 7 4 5 3 1 0 4 2 4 3 6 6 3 8 11 11 13 14 15 15 15 20 20 17 20 26 29 28
38 40 41 42 45 45 45 45 43 47 47 26 8 9 9 8 7 5 8 11 8 10 10 7 8 9 10 9 8 13 12 4 8 10 6 7 7 10 12 7 10 17 15 12 4 2 5 2 9 17 13 23 33 25 19 14 6 5 9 8 4 2 2 4 1 1 3 3 3 5 12 7 1 6 6 7 14 17 13 7 9 16 17 15 18 22 27 29
42 42 41 42 45 45 46 44 46 50 39 15 9 11 8 8 6 3 8 12 10 11 10 6 6 8 11 11 9 14 15 9 10 10 8 8 6 10 13 7 6 14 19 17 5 2 3 0 4 13 13 15 19 16 12 5 2 1 8 9 6 3 3 4 4 3 3 5 4 5 11 8 7 8 5 6 13 16 15 10 8 13 16 20 22 21 22 24
42 35 29 37 45 45 45 46 50 48 24 7 11 10 5 6 5 6 12 14 10 10 10 8 6 5 9 11 10 13 16 14 12 10 9 9 6 12 18 11 6 12 19 19 8 2 3 3 3 6 7 8 8 8 10 6 1 2 3 7 5 3 5 7 6 4 5 6 5 4 5 5 8 10 9 11 11 9 11 10 8 11 18 24 26 25 24 23
39 23 15 35 46 42 46 48 45 32 11 6 12 7 4 6 5 9 15 13 7 5 8 9 7 7 9 10 10 11 13 14 13 10 9 10 9 10 16 16 10 11 17 18 10 2 1 3 3 1 2 7 8 8 14 15 9 5 7 9 8 5 2 3 6 4 3 5 5 4 6 7 6 5 11 15 13 11 13 11 9 13 18 21 24 26 25 21
35 12 8 35 45 43 50 42 24 14 5 7 10 4 4 6 6 9 12 10 4 2 4 6 5 8 9 10 10 9 9 11 12 9 6 10 11 8 11 18 14 12 15 14 11 8 3 2 4 2 3 9 10 12 18 21 19 14 12 14 14 11 6 5 7 3 2 4 4 3 8 9 5 6 10 14 13 15 18 13 9 14 19 19 19 19 18 16
26 6 10 36 45 48 49 25 6 7 6 7 10 7 8 7 7 9 8 6 3 1 3 4 1 4 7 9 10 10 9 9 11 10 7 10 13 8 12 22 21 16 14 10 11 11 5 3 5 3 4 5 5 6 8 14 17 10 4 8 12 10 8 8 9 5 3 5 4 3 6 8 4 8 11 12 13 16 18 14 11 15 20 20 18 15 14 15
15 8 19 38 46 52 38 8 1 7 4 5 12 11 10 8 5 8 8 5 2 0 2 3 1 3 3 4 9 12 12 9 11 13 10 10 12 10 17 27 24 15 11 7 9 9 4 3 6 3 1 2 4 4 4 1 9 6 1 4 7 9 11 9 6 5 5 8 6 3 7 8 4 4 7 11 14 15 16 15 17 19 20 20 19 16 15 15
17 13 17 28 42 47 25 1 4 9 2 6 11 9 7 5 4 8 7 5 4 2 3 3 2 2 1 1 5 12 13 9 10 13 10 8 9 10 19 32 27 14 10 9 9 11 7 3 5 4 2 0 2 2 1 0 5 6 5 6 7 11 11 4 1 2 4 10 11 7 10 11 3 1 3 7 10 9 10 15 19 21 20 19 18 16 16 16
16 12 11 16 27 28 11 1 7 9 7 9 11 10 8 4 4 8 7 4 5 4 3 4 4 3 2 1 2 10 13 6 5 10 7 4 5 4 12 28 29 17 17 20 18 15 9 4 5 6 7 8 7 8 8 7 8 6 8 13 14 17 18 10 6 7 8 13 13 10 12 9 1 2 2 3 6 7 8 12 17 20 20 20 19 18 18 17
7 5 6 8 11 9 5 6 8 7 9 10 9 8 9 6 5 10 10 4 3 4 4 4 6 4 1 2 3 8 11 4 1 7 8 6 4 2 5 19 25 21 20 26 28 17 4 3 8 8 9 9 7 5 4 8 13 13 17 22 22 23 25 18 11 10 12 13 11 12 16 11 2 3 5 4 6 8 7 8 13 19 22 22 22 21 20 18
2 3 3 4 4 3 5 8 6 4 6 7 5 5 8 9 6 7 8 3 4 7 4 2 5 5 3 5 5 5 8 4 2 6 9 8 3 1 3 8 16 20 16 19 26 16 2 5 13 13 15 10 1 1 1 7 16 22 24 26 24 22 22 18 14 15 14 10 9 13 17 16 9 5 5 6 6 6 7 10 18 25 26 26 24 22 21 19
3 4 3 4 3 1 3 6 6 6 6 3 2 4 9 10 7 6 5 3 6 7 3 2 3 5 7 8 4 3 5 4 3 5 7 7 4 2 3 2 7 15 13 11 16 11 3 6 12 13 18 16 4 1 2 6 13 19 23 26 25 23 23 22 22 21 17 12 14 17 16 16 14 8 7 10 9 10 12 16 22 24 23 23 24 23 21 20
4 6 4 4 4 3 6 8 8 8 7 4 3 4 8 10 7 4 2 4 5 4 1 3 5 6 7 7 4 3 4 3 3 4 4 7 7 5 4 2 4 10 11 9 9 6 4 6 9 11 15 17 11 5 3 6 10 13 16 19 22 23 25 27 26 26 22 16 16 17 13 14 16 13 15 18 13 11 11 12 15 17 16 18 21 21 20 21
6 6 3 5 6 6 7 8 8 7 5 4 3 2 6 8 7 4 2 4 6 3 1 4 6 6 5 5 4 4 6 4 3 4 4 6 8 5 4 4 3 6 9 7 4 4 5 5 9 10 8 12 14 11 7 8 11 14 16 16 17 19 21 23 23 22 19 16 18 19 14 16 17 13 16 18 15 11 11 11 14 17 17 18 20 21 22 22
10 9 10 11 5 3 4 4 4 6 3 2 3 3 4 6 7 5 2 2 5 6 5 6 8 7 4 5 5 4 8 7 6 8 7 5 4 3 3 3 3 5 8 6 3 5 5 3 6 7 4 7 12 14 13 10 10 14 16 16 17 17 17 19 20 20 19 19 22 20 16 18 15 7 8 13 15 16 16 17 19 22 24 24 23 23 24 24
13 11 13 14 5 2 2 2 2 5 3 1 3 4 4 5 6 6 3 1 2 8 11 11 10 7 4 7 9 10 13 11 8 12 14 9 4 6 8 6 4 4 3 2 1 3 4 4 4 5 5 7 9 14 16 11 8 10 13 18 21 22 22 21 21 22 22 21 19 18 19 17 7 7 8 10 13 17 21 26 29 28 28 28 27 26 27 28
Wind_Direction
216 215 211 207 207 207 210 213 211 207 204 203 203 203 203 203 203 204 205 206 210 215 216 214 210 211 213 208 210 214 212 213 218 221 218 213 215 219 211 203 201 195 199 200 198 203 201 194 188 184 183 177 165 168 175 189 193 183 136 106 238 213 186 206 190 189 168 205 242 198 186 161 136 145 135 125 138 140 145 169 171 191 198 200 216 210 190 185
217 215 212 207 204 204 205 208 211 209 207 205 203 203 203 204 204 203 204 205 207 209 212 217 216 217 216 211 211 215 217 214 220 229 220 211 213 216 207 197 194 191 193 197 199 202 201 192 182 181 185 182 170 166 168 178 177 169 123 143 221 214 207 213 184 184 147 193 218 168 171 161 151 156 148 145 151 145 138 144 165 187 191 200 207 197 191 188
216 215 213 208 203 203 202 203 207 209 209 207 204 202 202 203 203 203 203 202 204 205 207 214 218 220 218 213 213 214 217 216 225 230 215 204 208 209 205 197 191 186 186 194 198 200 204 196 182 181 185 184 178 175 174 175 179 181 150 165 227 223 229 229 182 155 140 186 182 130 138 151 154 159 160 163 158 163 170 161 167 188 194 198 198 194 194 194
215 215 213 208 204 203 201 201 202 205 207 206 204 202 201 201 201 201 202 200 200 199 201 207 211 218 221 220 220 217 212 217 237 231 214 203 203 201 202 198 189 182 178 185 189 191 196 190 183 183 183 179 177 180 182 180 184 189 170 183 210 198 208 206 179 147 135 166 171 153 148 146 153 169 177 157 143 208 212 197 205 213 204 200 197 197 200 201
212 214 213 209 205 203 201 200 200 201 203 203 202 202 201 200 200 199 199 198 196 194 196 200 200 204 213 219 221 222 215 211 244 230 219 213 205 199 198 193 184 176 172 176 177 182 186 182 181 182 179 171 166 173 197 192 182 184 202 208 178 172 188 186 180 169 156 167 160 158 164 170 169 192 195 170 163 223 222 216 225 230 222 213 206 203 203 207
209 212 212 209 208 205 203 203 201 200 201 201 200 200 201 200 199 197 197 196 194 192 193 197 197 196 200 206 214 218 214 213 75 204 214 216 210 203 197 186 179 176 175 178 180 184 186 184 182 178 173 171 175 176 196 191 185 197 240 221 179 183 188 176 182 182 171 173 159 159 185 206 201 227 219 214 216 208 202 209 213 226 235 226 214 207 206 210
207 210 212 210 209 208 207 207 207 204 201 200 199 199 199 199 199 197 196 195 193 192 192 195 195 196 195 195 203 207 214 226 201 158 203 210 209 207 198 185 180 181 183 186 189 191 188 185 185 178 166 161 188 194 189 184 189 188 237 223 191 199 197 177 179 178 167 174 193 195 240 249 224 240 240 237 235 224 223 229 225 228 224 216 211 210 215 216
204 207 211 211 210 210 210 211 210 208 205 201 199 199 199 198 197 196 196 195 193 190 190 194 194 196 194 192 192 192 217 224 212 190 262 211 203 203 199 188 182 186 189 192 192 191 190 183 183 180 170 192 191 194 187 172 200 203 219 223 196 205 199 181 181 181 184 206 247 253 257 257 247 259 268 252 244 236 234 240 240 226 210 211 213 216 220 219
203 205 208 211 211 210 211 211 210 209 206 205 202 200 200 200 196 195 196 195 194 189 188 192 194 195 195 197 191 188 227 228 220 231 284 238 196 194 200 192 185 188 191 196 196 194 193 185 184 178 170 201 193 191 186 174 223 216 209 211 200 204 188 187 196 192 212 231 248 268 267 268 265 272 271 255 245 238 238 238 233 220 210 211 216 221 222 221
202 203 205 209 210 210 210 209 208 207 205 205 204 202 201 201 198 195 194 194 194 190 188 192 194 194 194 198 192 195 231 232 228 229 259 250 189 186 197 195 188 189 190 195 200 201 198 195 191 178 161 194 197 194 187 185 214 209 204 208 213 216 200 196 206 205 220 246 255 259 262 274 271 250 254 246 225 225 240 238 227 223 220 217 220 224 225 225
201 203 203 205 207 208 207 206 205 205 204 204 203 202 200 199 199 196 193 193 192 190 188 192 196 194 193 194 194 205 226 227 228 227 241 237 187 187 195 196 192 190 192 192 197 201 199 198 191 178 167 181 183 189 189 197 215 204 196 206 230 230 215 200 203 215 212 239 255 258 273 280 273 224 225 232 231 243 258 254 231 228 229 225 226 226 226 227
201 202 203 203 205 205 204 203 203 203 203 201 201 200 199 199 197 196 194 191 191 191 189 192 197 196 194 196 202 212 221 221 222 221 227 225 189 194 196 195 196 195 195 194 195 197 195 195 189 182 180 162 154 161 201 204 209 195 183 183 236 247 247 213 203 215 209 224 245 343 309 274 250 230 233 238 251 256 260 262 241 230 231 230 229 227 226 228
200 200 201 202 204 203 202 202 200 201 200 198 198 197 197 198 197 196 194 190 189 191 192 193 198 200 197 200 210 214 213 207 206 207 214 217 193 193 198 197 198 200 201 203 200 193 192 195 190 185 162 146 147 111 199 199 185 180 176 158 180 237 268 219 202 202 200 218 196 95 287 262 242 240 244 246 250 251 253 257 245 235 232 230 227 226 228 228
199 199 200 201 202 202 201 200 197 197 197 196 196 195 194 195 196 196 193 190 187 190 194 193 196 202 202 208 218 215 213 205 196 197 205 213 211 195 201 200 200 203 206 211 204 191 189 193 189 182 150 137 140 117 88 149 158 151 158 150 167 198 232 212 201 184 188 223 189 125 254 257 243 229 236 240 243 246 252 254 248 237 230 227 225 225 229 230
198 197 198 199 199 199 199 197 194 194 194 195 196 193 191 192 193 194 193 190 185 188 195 198 200 201 204 217 225 217 214 210 205 207 206 209 214 208 200 200 201 205 208 210 202 190 185 183 184 174 146 145 136 123 104 39 323 144 176 190 183 198 228 255 209 185 198 224 183 147 249 265 251 228 234 239 243 249 253 253 251 241 230 224 224 226 230 234
197 195 195 197 198 199 199 197 195 193 192 193 195 191 188 190 192 192 191 186 183 188 194 200 203 198 198 220 222 212 207 209 211 217 216 209 212 214 210 203 201 205 209 209 200 190 177 169 176 166 143 151 143 130 118 113 255 233 199 179 177 192 214 295 246 204 210 209 183 189 233 273 269 228 229 236 245 248 250 252 253 246 232 223 224 229 234 236
196 195 195 194 196 198 197 197 196 194 192 190 191 188 184 187 190 189 187 184 185 189 196 203 200 199 220 224 206 198 196 204 208 209 213 208 208 215 217 210 204 208 209 203 195 188 180 164 163 161 147 151 143 133 139 189 208 204 191 160 172 188 190 237 289 233 216 208 218 214 234 255 253 225 232 251 260 247 245 248 250 245 233 226 226 231 235 236
196 195 194 193 194 195 195 196 195 194 193 189 188 183 180 183 186 186 185 186 184 185 197 199 189 192 235 225 206 193 195 202 204 202 202 200 202 210 214 210 202 208 204 190 191 187 183 171 156 149 156 165 165 165 177 197 188 176 174 163 157 186 204 214 243 246 201 201 229 211 235 252 252 249 255 264 271 257 247 247 248 242 233 231 232 232 234 236
195 194 194 192 192 193 193 193 191 192 190 185 182 177 175 176 179 186 186 186 182 179 188 180 180 184 220 219 207 193 198 202 202 200 195 193 194 197 204 205 195 198 198 179 194 191 177 159 160 173 186 188 186 178 177 157 152 165 175 182 179 186 224 225 233 240 186 192 227 209 227 251 254 253 257 260 259 253 250 248 248 245 239 239 241 239 237 236
192 192 192 191 192 191 189 189 189 189 185 181 177 170 169 167 164 184 187 191 191 187 186 183 190 198 213 220 200 186 187 195 197 195 193 191 187 182 184 186 179 180 208 203 200 192 178 169 198 203 196 190 184 172 166 133 151 167 174 190 192 190 236 234 239 252 199 194 233 217 228 253 256 248 249 255 257 250 246 245 246 246 246 248 250 249 244 241
190 189 189 190 190 189 188 187 186 186 183 182 178 172 173 171 164 182 180 194 202 194 196 197 196 201 209 166 187 181 173 182 192 190 193 190 182 174 164 163 160 166 214 225 217 190 187 199 209 209 200 184 180 175 173 173 166 174 176 187 198 198 236 241 238 250 189 185 249 233 232 253 256 252 254 255 253 248 243 240 245 248 250 253 254 253 251 250
190 187 187 188 188 187 187 186 185 185 182 184 184 182 185 181 180 189 178 180 208 200 207 204 197 201 203 162 174 176 170 173 184 186 188 183 176 172 162 160 165 175 196 211 219 188 191 222 214 206 197 180 183 180 179 187 181 177 169 174 202 196 234 270 267 254 175 182 252 246 225 253 261 260 260 252 242 249 249 243 246 248 249 251 252 252 252 252
191 188 185 186 187 185 184 184 184 183 183 187 189 192 193 186 185 189 178 152 199 203 210 199 195 201 203 171 168 174 175 175 180 183 183 178 174 173 164 164 180 176 178 200 214 198 199 226 215 198 184 180 185 182 182 192 195 189 160 173 209 174 164 253 264 244 192 188 210 228 233 258 272 275 264 249 242 249 255 251 249 249 247 250 251 253 253 252
189 188 186 185 185 183 181 180 181 184 189 193 195 199 195 186 180 168 169 138 63 203 211 205 200 204 203 184 175 178 182 184 184 181 180 177 172 171 170 172 177 174 179 196 206 216 227 220 179 174 179 180 180 181 182 190 207 210 189 188 197 178 187 215 230 176 5 299 244 293 297 274 257 263 262 251 240 245 252 252 252 250 248 250 251 252 252 252
187 187 187 184 181 179 175 175 181 186 191 196 199 201 197 188 178 158 154 111 28 202 209 208 212 215 205 197 191 187 187 197 195 185 182 182 175 168 176 178 173 175 185 190 199 226 239 170 152 174 183 176 179 184 188 188 195 215 212 200 183 181 199 191 156 108 39 307 269 184 277 276 254 257 262 261 237 245 251 248 250 252 250 249 249 249 250 250
185 185 187 183 177 174 171 176 185 186 189 198 200 198 199 193 175 159 146 75 314 185 181 194 202 214 205 196 183 179 189 212 204 194 186 187 186 175 172 177 175 186 183 181 194 226 235 174 168 179 172 178 192 193 194 187 185 219 204 187 182 174 184 167 142 141 161 254 275 160 213 270 297 270 260 259 248 256 258 246 247 251 251 249 248 249 249 249
183 183 186 183 176 172 174 180 186 185 189 198 198 195 197 192 175 161 149 27 255 158 148 181 184 196 201 189 174 172 185 185 194 204 191 187 189 183 178 178 173 187 174 163 204 207 183 184 177 169 172 185 198 201 201 186 189 229 171 166 184 169 164 167 150 177 221 258 296 193 182 273 282 254 255 252 250 265 266 254 251 250 250 250 251 251 250 249
183 183 185 183 179 180 182 183 183 186 192 196 193 190 189 186 178 161 152 220 183 137 144 176 179 187 185 176 178 180 157 158 173 211 198 190 189 184 191 192 180 180 168 163 207 205 181 188 179 172 180 191 200 201 191 181 199 253 154 161 182 160 142 143 134 178 316 12 267 222 146 277 267 249 267 254 236 253 256 252 254 253 251 251 251 253 253 252
183 183 184 182 182 186 187 187 186 188 194 193 188 185 177 173 171 147 166 219 137 110 147 164 172 175 162 162 180 187 179 164 164 198 194 194 192 186 194 198 191 182 177 182 202 196 181 198 189 177 184 201 204 193 171 177 203 219 149 132 124 104 89 90 109 119 55 293 241 207 161 239 265 237 220 234 220 234 250 250 247 250 252 253 253 254 256 255
184 182 183 182 183 185 188 193 194 191 192 189 183 177 167 162 158 148 214 210 96 121 145 157 167 158 154 156 181 190 190 182 162 171 184 193 197 199 206 196 195 186 185 199 209 201 101 194 189 186 202 203 188 173 175 181 168 124 118 98 75 43 45 55 65 81 75 257 237 192 170 199 266 247 198 214 216 214 233 247 248 250 253 256 258 259 260 259
185 181 182 185 186 186 187 191 195 192 190 187 177 169 161 151 149 191 200 184 60 151 143 158 166 151 159 167 173 187 194 177 157 162 175 189 197 202 200 190 198 194 191 201 210 217 108 144 170 204 209 175 128 159 185 172 151 128 115 117 114 46 26 30 33 96 222 252 234 177 162 178 237 250 213 241 251 229 227 239 249 251 252 257 263 268 268 265
185 183 185 188 189 191 191 190 190 188 187 183 171 162 154 137 186 200 179 82 66 177 157 161 166 158 169 176 174 180 184 182 171 166 174 185 198 197 191 188 184 188 202 193 194 205 204 179 171 196 198 165 151 163 115 125 168 156 135 141 151 176 189 207 205 192 221 254 296 161 154 183 236 251 258 259 261 246 233 235 240 245 253 263 272 279 282 277
185 185 187 189 192 195 194 191 187 185 182 177 166 154 153 193 187 187 179 157 222 207 161 162 171 174 172 175 183 180 180 188 176 170 182 190 203 203 201 199 188 193 209 187 187 191 199 209 180 164 178 179 174 165 153 169 195 188 173 169 173 172 191 208 206 215 230 248 335 152 162 235 269 271 237 242 252 249 245 247 250 255 261 267 271 276 285 284
186 188 188 191 196 197 195 192 188 186 178 168 161 150 176 202 175 183 192 190 263 233 166 164 167 174 177 182 184 171 178 196 177 172 182 189 205 210 206 206 200 203 191 178 196 185 190 208 184 173 171 173 181 189 183 171 179 194 186 178 186 180 194 203 196 212 223 226 184 183 193 203 213 247 226 232 255 263 262 261 262 264 264 267 265 264 270 270
187 190 190 192 197 197 197 193 188 186 174 162 157 167 187 187 174 186 192 184 212 190 169 166 162 168 185 193 185 178 189 196 174 176 184 187 200 203 203 208 204 203 176 176 208 187 201 221 178 180 176 169 186 198 181 160 178 200 162 181 205 191 175 177 191 202 179 141 208 200 235 217 208 276 279 256 262 265 262 262 263 264 265 268 260 251 255 257
186 188 191 193 196 197 197 193 188 182 172 161 160 195 187 193 186 181 177 172 177 157 152 170 170 169 184 190 187 192 202 195 166 180 194 197 209 204 201 204 200 202 189 180 196 178 206 234 175 179 177 181 191 189 171 167 174 184 171 194 202 144 132 132 213 73 95 194 227 199 252 278 306 285 275 262 268 269 257 250 253 259 263 263 254 246 247 250
184 188 192 195 196 195 193 191 188 179 170 166 182 191 187 201 190 168 165 165 160 148 153 180 180 169 177 187 190 187 192 184 172 186 188 187 212 207 205 220 205 202 195 188 217 193 186 227 185 181 185 194 193 182 176 179 155 156 185 184 144 89 91 102 163 19 80 221 245 213 233 245 252 262 256 232 249 261 258 235 243 263 263 256 254 249 246 250
184 186 188 193 195 193 190 189 185 176 169 170 197 189 190 199 183 150 156 155 154 159 171 191 183 179 182 183 190 184 181 182 181 188 187 184 196 185 189 220 220 203 196 188 204 285 181 283 215 196 194 193 184 174 179 188 37 143 181 165 144 183 208 161 177 192 171 221 259 232 232 226 204 226 235 206 223 242 254 253 251 261 256 249 249 247 244 249
176 177 182 190 191 190 189 185 178 174 170 179 196 190 185 189 180 173 167 158 159 172 184 188 174 191 196 184 182 180 183 190 181 182 193 189 194 185 183 190 192 194 195 188 190 253 200 200 225 211 197 172 163 177 186 190 307 357 146 166 175 196 197 189 194 187 178 212 248 248 234 234 220 208 203 219 225 228 243 251 246 243 243 242 241 242 248 255
165 164 178 186 187 189 187 180 173 174 178 190 191 183 155 172 171 180 179 167 157 170 187 190 176 180 194 191 184 178 188 196 187 188 197 182 186 199 190 186 178 176 188 192 196 193 163 199 199 203 185 175 180 193 187 181 178 169 172 184 197 203 184 195 208 185 151 197 231 256 250 251 245 194 190 212 226 230 234 241 241 240 244 245 241 241 248 256
159 154 174 180 185 184 178 176 175 177 187 191 191 173 147 170 157 171 184 172 142 111 154 171 178 181 187 189 185 180 185 197 193 194 201 186 192 211 198 190 182 166 174 191 201 191 168 180 183 182 201 192 194 199 194 187 181 181 188 189 191 192 174 186 211 191 108 198 189 210 258 261 233 182 192 204 212 225 233 235 236 240 244 243 237 236 241 247
155 149 161 170 179 178 171 172 180 172 185 188 177 162 158 164 151 155 168 157 139 77 113 117 144 190 192 189 183 177 175 190 197 195 200 201 203 208 191 188 187 176 170 183 195 184 160 149 177 203 224 214 222 222 205 194 190 189 194 189 190 190 179 189 209 199 188 213 173 160 266 276 204 177 194 202 208 223 229 226 227 240 243 238 231 230 235 237
132 123 150 160 173 176 170 164 114 160 194 162 147 149 153 151 150 151 153 156 165 256 121 118 139 196 199 191 179 175 174 186 197 197 200 206 212 213 186 182 186 184 173 181 186 169 131 147 181 193 269 306 321 324 359 190 197 203 272 192 184 192 196 198 199 182 189 208 197 202 256 264 236 192 205 207 210 222 225 218 222 235 240 233 228 227 228 225
104 106 140 157 169 172 170 167 150 150 146 142 141 142 138 132 160 159 154 167 175 161 137 135 161 195 198 186 183 181 178 183 198 199 199 202 217 220 189 184 186 182 183 191 174 167 174 174 164 164 175 274 330 293 334 48 189 193 205 204 192 193 198 195 117 158 206 213 201 204 241 250 265 353 251 220 213 224 230 221 221 229 230 223 219 219 219 217
107 103 123 148 160 162 156 147 155 140 134 144 142 144 136 121 175 170 152 159 178 168 143 135 135 138 152 119 184 192 186 177 184 190 190 197 219 225 189 191 191 186 193 194 173 167 186 180 163 182 189 189 196 202 198 187 181 179 190 197 198 194 191 190 197 196 208 213 202 202 231 249 343 100 190 206 211 227 238 227 221 222 222 218 212 212 215 216
114 107 123 138 141 132 113 137 138 127 142 144 134 151 151 132 164 170 153 156 215 167 120 115 126 106 86 135 147 191 194 184 140 179 185 192 211 245 188 193 198 200 200 188 171 161 175 194 187 210 221 209 202 215 206 174 176 184 191 196 200 197 194 194 200 203 211 215 209 213 227 235 219 181 200 199 206 219 226 216 209 211 214 212 209 211 215 219
82 112 128 133 123 98 111 133 131 120 148 148 129 150 151 135 142 161 155 187 212 163 106 59 140 144 167 159 147 181 185 176 177 181 184 186 191 235 171 181 202 207 198 178 170 160 122 204 194 211 232 235 229 356 243 174 185 193 194 195 200 200 195 198 207 211 211 217 226 226 228 232 229 225 243 238 220 218 217 200 197 200 204 203 203 208 213 218
70 117 101 100 114 128 125 139 150 139 139 144 104 122 141 141 141 150 153 170 180 167 103 42 180 184 169 156 135 156 165 162 191 180 171 177 167 142 159 153 211 203 184 177 185 167 122 205 195 201 225 234 240 289 239 192 203 209 201 196 196 194 192 200 211 215 208 210 229 225 219 229 232 225 236 233 210 202 210 206 200 198 199 202 202 204 209 216
95 112 81 68 89 120 122 126 136 134 135 132 94 121 143 144 144 147 131 130 160 196 113 121 195 202 170 154 115 129 171 161 192 203 181 176 170 149 156 180 220 200 181 188 206 177 152 199 188 190 223 235 232 236 225 198 215 226 219 209 201 195 196 201 208 215 212 214 234 233 224 235 233 215 219 225 213 205 216 217 212 207 205 207 206 207 213 218
122 128 100 86 90 104 107 112 128 130 126 109 89 122 143 143 152 154 114 132 156 196 60 121 172 171 162 177 145 153 199 181 162 211 203 183 185 172 175 189 171 175 187 196 206 197 202 193 165 170 219 237 226 227 230 214 213 216 216 216 211 205 208 210 212 216 215 218 236 238 234 242 238 217 214 218 211 218 231 222 216 217 217 217 213 214 221 224
129 131 131 122 94 65 91 95 125 122 102 82 114 150 153 158 168 152 98 114 144 154 149 144 155 148 155 199 191 189 197 175 166 191 181 171 191 151 131 181 152 152 187 197 173 183 200 170 144 153 200 230 218 218 223 223 225 223 215 209 207 207 212 216 216 215 208 210 226 233 233 241 238 196 183 195 195 213 228 221 218 220 219 220 220 222 227 231
123 122 135 132 99 15 104 85 79 111 137 186 139 150 162 168 170 141 106 18 107 145 158 157 152 146 150 191 210 212 193 169 164 183 171 141 107 73 74 81 75 94 157 182 142 160 156 142 139 150 194 228 214 208 216 218 222 230 214 202 202 204 208 214 218 220 213 206 214 222 228 238 223 147 177 191 187 207 220 220 222 225 222 221 225 233 240 243
Height
1454 1457 1460 1463 1466 1469 1471 1474 1477 1480 1482 1485 1488 1491 1494 1496 1498 1500 1502 1504 1506 1508 1511 1512 1514 1517 1520 1522 1523 1525 1527 1528 1529 1529 1529 1531 1533 1535 1537 1540 1541 1543 1545 1547 1548 1549 1549 1550 1552 1553 1555 1556 1556 1556 1558 1558 1559 1561 1564 1569 1570 1568 1566 1563 1562 1562 1561 1560 1560 1559 1559 1559 1560 1560 1559 1561 1562 1562 1563 1564 1564 1564 1564 1565 1565 1565 1566 1567
1450 1454 1457 1460 1463 1466 1469 1472 1475 1477 1480 1482 1486 1489 1492 1494 1496 1499 1500 1503 1505 1506 1508 1510 1512 1515 1518 1521 1522 1525 1526 1527 1528 1526 1527 1531 1533 1534 1537 1539 1540 1542 1544 1545 1547 1548 1548 1549 1551 1552 1554 1555 1556 1556 1557 1558 1559 1560 1563 1568 1568 1565 1562 1559 1559 1559 1559 1560 1559 1559 1559 1559 1559 1558 1559 1560 1562 1562 1563 1564 1564 1564 1564 1564 1564 1565 1566 1566
1446 1450 1454 1458 1460 1463 1466 1469 1472 1474 1477 1480 1483 1486 1489 1492 1495 1497 1499 1501 1503 1505 1506 1508 1511 1513 1516 1519 1522 1524 1525 1526 1526 1523 1525 1529 1531 1533 1536 1537 1539 1541 1542 1544 1546 1547 1548 1549 1550 1552 1553 1554 1555 1556 1557 1558 1558 1558 1561 1566 1565 1561 1560 1559 1559 1559 1558 1559 1559 1560 1559 1559 1558 1558 1558 1559 1561 1562 1562 1563 1563 1563 1563 1563 1564 1564 1565 1566
1442 1446 1451 1455 1458 1461 1464 1467 1470 1472 1475 1478 1481 1484 1487 1489 1492 1495 1498 1500 1501 1503 1505 1507 1509 1512 1515 1518 1521 1523 1524 1526 1522 1520 1526 1528 1530 1532 1534 1536 1538 1540 1541 1543 1545 1547 1549 1550 1550 1551 1552 1554 1554 1555 1556 1556 1557 1558 1559 1560 1560 1559 1559 1559 1559 1558 1558 1559 1559 1559 1559 1559 1559 1559 1558 1558 1560 1561 1559 1560 1560 1561 1561 1562 1563 1563 1564 1564
1439 1443 1447 1451 1455 1459 1461 1464 1467 1470 1473 1476 1479 1482 1484 1487 1490 1493 1496 1498 1500 1502 1504 1506 1508 1511 1513 1516 1520 1521 1524 1526 1519 1519 1525 1527 1528 1531 1532 1535 1536 1539 1540 1542 1544 1546 1548 1549 1549 1551 1552 1553 1554 1554 1554 1555 1556 1557 1556 1556 1556 1557 1558 1558 1558 1558 1558 1558 1559 1559 1559 1559 1559 1558 1558 1558 1558 1558 1557 1558 1558 1559 1560 1560 1561 1562 1562 1563
1435 1439 1443 1448 1452 1456 1459 1462 1465 1468 1471 1474 1477 1480 1482 1485 1488 1491 1494 1496 1499 1501 1503 1505 1507 1509 1512 1515 1519 1521 1523 1523 1517 1518 1521 1523 1527 1529 1531 1534 1535 1538 1539 1540 1543 1545 1547 1548 1549 1550 1550 1552 1553 1553 1553 1554 1555 1556 1556 1555 1556 1556 1556 1557 1558 1558 1558 1558 1559 1559 1559 1558 1559 1558 1558 1557 1556 1556 1556 1557 1558 1558 1558 1559 1560 1560 1561 1561
1432 1436 1440 1444 1449 1453 1456 1460 1463 1467 1470 1473 1475 1478 1480 1483 1486 1489 1492 1495 1497 1499 1502 1504 1506 1508 1511 1514 1517 1520 1520 1518 1516 1517 1518 1521 1524 1527 1530 1533 1534 1536 1537 1539 1541 1543 1545 1546 1548 1549 1550 1551 1552 1552 1553 1554 1555 1556 1556 1555 1555 1555 1555 1556 1557 1558 1558 1558 1559 1559 1559 1558 1558 1558 1557 1556 1555 1555 1556 1556 1557 1557 1557 1558 1558 1558 1558 1559
1428 1432 1436 1441 1445 1450 1454 1458 1461 1465 1468 1471 1474 1476 1479 1481 1484 1488 1490 1493 1495 1498 1501 1502 1505 1506 1509 1512 1514 1518 1516 1513 1516 1517 1517 1519 1521 1525 1529 1531 1533 1534 1536 1538 1539 1541 1543 1545 1547 1548 1550 1551 1551 1552 1552 1554 1556 1555 1555 1554 1555 1555 1555 1556 1557 1558 1558 1559 1559 1559 1558 1558 1558 1557 1557 1555 1555 1555 1555 1555 1556 1556 1556 1556 1556 1557 1557 1558
1425 1429 1433 1438 1442 1447 1451 1455 1459 1463 1466 1469 1472 1475 1477 1480 1483 1486 1489 1492 1494 1497 1499 1501 1503 1505 1508 1510 1513 1515 1510 1509 1516 1517 1517 1518 1519 1523 1527 1529 1531 1533 1535 1537 1539 1541 1542 1543 1546 1548 1549 1551 1551 1551 1552 1555 1555 1554 1554 1554 1555 1555 1555 1556 1556 1557 1558 1559 1559 1559 1558 1557 1557 1556 1555 1553 1554 1554 1554 1554 1554 1554 1555 1555 1555 1555 1556 1556
1421 1426 1430 1434 1439 1444 1448 1453 1457 1461 1464 1467 1471 1473 1476 1479 1481 1484 1487 1490 1493 1495 1498 1500 1502 1504 1506 1509 1512 1510 1503 1507 1516 1516 1517 1518 1518 1520 1525 1528 1530 1532 1534 1536 1538 1539 1541 1542 1545 1547 1549 1550 1550 1551 1551 1553 1553 1552 1553 1555 1554 1555 1555 1556 1557 1557 1558 1558 1558 1558 1557 1555 1555 1556 1554 1552 1552 1553 1553 1553 1553 1553 1553 1553 1554 1554 1554 1554
1418 1423 1427 1431 1436 1440 1446 1450 1455 1458 1462 1465 1469 1472 1475 1478 1480 1483 1486 1489 1492 1494 1497 1499 1500 1502 1504 1506 1507 1503 1500 1506 1513 1515 1518 1519 1519 1520 1524 1527 1530 1531 1533 1535 1537 1538 1540 1542 1544 1547 1548 1549 1550 1551 1551 1551 1551 1551 1553 1555 1555 1555 1555 1556 1556 1557 1557 1557 1558 1557 1555 1554 1554 1553 1551 1551 1552 1552 1552 1551 1552 1552 1552 1552 1552 1552 1552 1552
1415 1420 1424 1429 1433 1438 1443 1447 1452 1456 1460 1463 1467 1470 1473 1476 1479 1482 1485 1488 1491 1493 1496 1498 1499 1501 1503 1504 1502 1500 1503 1507 1510 1513 1517 1519 1520 1522 1525 1528 1530 1532 1533 1534 1536 1538 1540 1542 1543 1545 1546 1546 1549 1552 1552 1551 1551 1552 1552 1555 1556 1555 1556 1555 1555 1556 1556 1557 1556 1557 1557 1552 1550 1549 1548 1550 1551 1551 1551 1550 1550 1550 1550 1550 1550 1550 1550 1551
1412 1417 1421 1426 1430 1435 1440 1444 1449 1453 1457 1461 1465 1468 1472 1475 1478 1481 1484 1487 1490 1492 1495 1497 1498 1500 1501 1501 1500 1501 1505 1507 1509 1512 1516 1520 1521 1523 1526 1528 1531 1533 1534 1535 1536 1538 1540 1541 1542 1543 1544 1545 1548 1551 1551 1551 1552 1553 1553 1554 1557 1559 1557 1553 1554 1555 1555 1556 1554 1558 1561 1551 1545 1546 1545 1547 1548 1548 1549 1548 1548 1548 1548 1548 1548 1549 1548 1549
1410 1414 1419 1423 1428 1432 1437 1441 1446 1450 1455 1459 1463 1467 1470 1473 1477 1480 1483 1486 1489 1492 1494 1496 1497 1499 1500 1500 1499 1502 1505 1507 1509 1511 1514 1518 1520 1523 1525 1528 1531 1533 1535 1536 1537 1539 1540 1541 1542 1543 1544 1545 1547 1549 1551 1552 1553 1553 1555 1555 1557 1561 1558 1551 1553 1555 1554 1555 1553 1559 1563 1549 1541 1544 1543 1544 1546 1546 1546 1545 1546 1545 1546 1546 1546 1546 1546 1547
1407 1412 1417 1421 1425 1430 1434 1439 1443 1448 1453 1457 1461 1465 1469 1472 1476 1479 1482 1485 1488 1491 1493 1494 1496 1498 1499 1499 1499 1501 1504 1506 1508 1510 1512 1515 1519 1522 1525 1527 1530 1533 1535 1536 1537 1540 1541 1541 1542 1543 1544 1545 1547 1549 1552 1554 1554 1553 1557 1559 1558 1560 1558 1551 1552 1553 1553 1554 1552 1558 1561 1546 1540 1541 1541 1543 1543 1543 1543 1543 1544 1543 1543 1544 1543 1544 1544 1544
1405 1409 1414 1419 1423 1427 1431 1436 1441 1446 1451 1455 1459 1463 1468 1471 1475 1478 1482 1484 1488 1490 1491 1493 1494 1497 1498 1497 1497 1499 1501 1503 1506 1509 1511 1513 1516 1519 1524 1527 1530 1533 1535 1536 1538 1540 1541 1541 1541 1542 1544 1545 1546 1549 1554 1558 1557 1553 1555 1559 1558 1558 1560 1555 1552 1550 1550 1552 1552 1555 1554 1544 1539 1538 1538 1540 1540 1541 1541 1541 1541 1541 1541 1541 1542 1542 1541 1542
1402 1407 1412 1416 1421 1425 1429 1434 1438 1443 1449 1453 1458 1462 1467 1471 1474 1478 1481 1484 1486 1488 1490 1491 1493 1496 1496 1494 1495 1496 1497 1501 1504 1506 1508 1511 1514 1517 1521 1526 1530 1533 1534 1537 1539 1539 1540 1540 1540 1542 1543 1544 1545 1547 1555 1560 1558 1554 1554 1557 1557 1556 1560 1558 1553 1548 1548 1552 1552 1552 1551 1540 1535 1537 1537 1538 1539 1539 1539 1539 1539 1538 1538 1539 1539 1540 1539 1539
1400 1405 1410 1414 1419 1423 1428 1432 1437 1441 1446 1452 1457 1462 1466 1470 1474 1476 1479 1482 1484 1487 1490 1491 1494 1497 1494 1489 1490 1491 1494 1499 1501 1503 1507 1509 1511 1515 1520 1524 1529 1533 1535 1537 1538 1538 1539 1539 1539 1542 1543 1544 1543 1544 1549 1551 1550 1553 1555 1556 1556 1555 1557 1557 1553 1548 1547 1551 1551 1553 1552 1539 1533 1537 1536 1536 1538 1538 1537 1537 1537 1536 1536 1536 1537 1537 1537 1537
1398 1403 1408 1412 1417 1422 1426 1431 1435 1440 1444 1450 1455 1460 1465 1469 1473 1475 1477 1479 1481 1483 1486 1486 1487 1489 1485 1482 1486 1490 1493 1497 1499 1501 1505 1506 1509 1513 1517 1522 1527 1532 1535 1537 1537 1537 1537 1539 1541 1541 1541 1540 1538 1538 1540 1541 1542 1547 1550 1551 1553 1554 1554 1553 1551 1547 1547 1550 1551 1552 1550 1538 1533 1537 1535 1534 1536 1536 1535 1535 1534 1534 1534 1535 1535 1535 1535 1534
1396 1401 1405 1410 1415 1420 1425 1430 1434 1438 1443 1448 1452 1457 1462 1465 1470 1473 1475 1475 1475 1476 1479 1478 1478 1480 1479 1479 1484 1489 1492 1496 1498 1500 1502 1504 1507 1512 1516 1520 1526 1533 1536 1536 1536 1535 1535 1539 1539 1534 1532 1532 1533 1535 1536 1538 1540 1543 1546 1549 1550 1552 1552 1549 1548 1546 1546 1549 1549 1548 1547 1539 1534 1535 1533 1533 1535 1534 1533 1532 1531 1532 1532 1533 1533 1532 1532 1531
1394 1399 1403 1408 1413 1418 1424 1428 1433 1437 1441 1445 1448 1452 1454 1457 1461 1464 1467 1471 1473 1474 1477 1477 1477 1480 1480 1481 1483 1486 1491 1494 1497 1499 1501 1504 1506 1510 1516 1519 1524 1532 1534 1535 1535 1534 1535 1536 1531 1526 1526 1528 1531 1533 1534 1537 1540 1542 1545 1548 1550 1552 1550 1547 1546 1545 1546 1549 1548 1545 1548 1542 1533 1532 1532 1533 1534 1531 1528 1529 1529 1529 1529 1529 1529 1528 1528 1528
1393 1397 1402 1407 1412 1417 1422 1427 1432 1436 1440 1444 1447 1449 1450 1452 1454 1455 1460 1467 1470 1473 1476 1477 1479 1480 1481 1482 1483 1486 1489 1492 1496 1498 1499 1503 1505 1508 1514 1518 1522 1526 1530 1535 1535 1535 1536 1531 1523 1521 1525 1528 1530 1531 1534 1537 1539 1542 1545 1548 1550 1550 1550 1547 1545 1544 1545 1548 1547 1545 1548 1542 1532 1531 1532 1531 1530 1526 1525 1526 1526 1525 1526 1525 1524 1524 1524 1525
1391 1396 1401 1405 1410 1415 1421 1426 1431 1435 1438 1441 1443 1445 1448 1452 1455 1457 1461 1466 1470 1473 1475 1476 1478 1479 1480 1482 1483 1485 1487 1488 1492 1494 1496 1499 1503 1506 1510 1514 1518 1522 1529 1534 1534 1534 1532 1522 1517 1523 1528 1529 1532 1533 1535 1538 1539 1540 1543 1547 1548 1546 1548 1549 1545 1544 1545 1546 1546 1546 1547 1542 1534 1530 1529 1527 1526 1524 1522 1522 1521 1521 1521 1520 1520 1520 1520 1520
1389 1394 1399 1403 1409 1414 1419 1425 1430 1433 1435 1437 1440 1443 1447 1452 1456 1459 1462 1467 1471 1472 1473 1475 1477 1477 1479 1482 1483 1485 1486 1487 1489 1491 1493 1496 1500 1505 1507 1509 1514 1521 1526 1528 1531 1531 1523 1516 1518 1526 1529 1530 1534 1535 1537 1540 1541 1540 1540 1543 1544 1543 1544 1545 1544 1544 1545 1545 1545 1547 1548 1540 1532 1530 1524 1520 1522 1521 1518 1518 1518 1517 1516 1515 1516 1516 1515 1514
1387 1393 1397 1401 1407 1412 1418 1424 1426 1429 1433 1435 1438 1442 1447 1452 1456 1459 1462 1468 1472 1472 1474 1475 1477 1477 1478 1481 1483 1484 1486 1488 1488 1490 1492 1493 1497 1502 1505 1507 1511 1518 1521 1523 1530 1529 1521 1517 1520 1525 1528 1530 1533 1534 1534 1536 1540 1541 1537 1536 1538 1539 1540 1542 1544 1545 1549 1550 1544 1547 1553 1540 1527 1527 1522 1518 1521 1519 1515 1516 1514 1511 1511 1512 1511 1510 1509 1509
1386 1391 1395 1399 1404 1409 1416 1420 1422 1427 1431 1433 1436 1441 1447 1452 1458 1460 1463 1472 1474 1470 1472 1474 1475 1474 1475 1479 1482 1485 1488 1488 1487 1489 1491 1493 1496 1497 1503 1506 1507 1512 1514 1519 1527 1524 1519 1518 1519 1522 1527 1529 1531 1532 1530 1531 1539 1540 1531 1530 1534 1535 1538 1542 1543 1546 1551 1552 1544 1546 1553 1543 1529 1524 1519 1518 1520 1516 1513 1513 1510 1507 1507 1507 1505 1503 1503 1504
1383 1388 1393 1397 1400 1405 1410 1413 1419 1424 1426 1429 1433 1440 1446 1450 1459 1460 1465 1481 1477 1464 1468 1471 1471 1470 1470 1475 1479 1484 1488 1484 1485 1488 1488 1492 1496 1497 1500 1502 1504 1507 1509 1518 1525 1516 1513 1517 1519 1522 1526 1529 1531 1530 1526 1527 1535 1534 1525 1527 1533 1534 1539 1541 1543 1546 1548 1548 1546 1545 1550 1549 1537 1524 1516 1516 1517 1514 1511 1509 1505 1503 1502 1501 1499 1498 1497 1498
1381 1387 1391 1395 1399 1402 1405 1410 1416 1419 1421 1425 1431 1440 1445 1450 1459 1460 1469 1483 1470 1455 1462 1466 1467 1469 1469 1474 1477 1479 1481 1478 1481 1485 1485 1490 1493 1495 1498 1497 1498 1501 1503 1513 1516 1507 1506 1512 1514 1516 1522 1525 1521 1518 1519 1524 1531 1529 1525 1528 1531 1533 1538 1540 1543 1547 1548 1550 1549 1545 1549 1551 1536 1520 1517 1516 1515 1512 1507 1503 1501 1498 1497 1495 1494 1493 1493 1493
1379 1385 1390 1394 1399 1403 1407 1411 1414 1417 1421 1426 1432 1440 1446 1452 1460 1463 1472 1475 1455 1447 1456 1459 1463 1468 1468 1473 1475 1476 1478 1478 1480 1482 1484 1489 1490 1491 1494 1494 1496 1499 1500 1502 1502 1501 1504 1506 1506 1509 1514 1513 1509 1509 1515 1521 1526 1527 1526 1529 1532 1536 1539 1543 1546 1547 1551 1554 1547 1542 1547 1547 1529 1512 1514 1516 1513 1509 1503 1499 1497 1493 1491 1490 1489 1489 1489 1490
1377 1382 1388 1393 1397 1402 1407 1411 1414 1417 1421 1426 1433 1440 1446 1452 1459 1468 1473 1464 1447 1448 1454 1454 1458 1462 1465 1470 1473 1474 1476 1477 1479 1481 1483 1487 1488 1490 1490 1491 1494 1497 1501 1501 1499 1500 1501 1502 1505 1508 1508 1506 1507 1512 1513 1515 1521 1525 1527 1532 1538 1542 1542 1546 1547 1548 1555 1550 1537 1534 1539 1544 1532 1511 1507 1508 1503 1500 1497 1495 1492 1488 1488 1486 1486 1486 1485 1487
1376 1381 1387 1391 1394 1398 1403 1407 1412 1416 1420 1426 1433 1439 1446 1452 1460 1468 1466 1452 1444 1449 1453 1453 1455 1456 1460 1465 1468 1472 1475 1476 1478 1479 1482 1485 1486 1488 1489 1492 1494 1497 1500 1501 1501 1501 1502 1504 1506 1506 1506 1506 1510 1515 1516 1516 1519 1522 1527 1532 1541 1547 1548 1550 1551 1554 1556 1541 1527 1526 1532 1543 1535 1509 1501 1501 1495 1495 1494 1490 1487 1485 1484 1483 1483 1483 1483 1484
1375 1381 1385 1389 1392 1396 1399 1403 1409 1414 1420 1425 1431 1437 1444 1453 1458 1459 1454 1448 1446 1447 1448 1452 1453 1454 1457 1461 1464 1467 1471 1474 1475 1476 1479 1481 1482 1482 1483 1486 1489 1494 1496 1496 1499 1502 1502 1502 1501 1502 1505 1505 1508 1516 1522 1525 1523 1523 1528 1534 1543 1552 1552 1552 1551 1550 1545 1534 1529 1529 1531 1535 1521 1498 1497 1498 1491 1491 1489 1485 1483 1482 1481 1480 1481 1481 1481 1481
1375 1379 1384 1388 1391 1395 1399 1404 1409 1414 1420 1425 1431 1436 1442 1449 1449 1444 1443 1445 1443 1440 1441 1446 1448 1451 1454 1459 1462 1464 1468 1470 1471 1473 1476 1478 1479 1478 1477 1478 1480 1483 1488 1491 1496 1501 1503 1501 1500 1503 1506 1504 1505 1512 1521 1525 1527 1527 1527 1529 1537 1545 1549 1549 1546 1542 1537 1532 1532 1533 1532 1528 1510 1493 1492 1489 1483 1483 1483 1481 1480 1480 1480 1479 1479 1480 1479 1479
1374 1378 1382 1386 1391 1395 1399 1405 1408 1412 1418 1424 1430 1436 1442 1444 1439 1435 1439 1442 1440 1438 1437 1439 1444 1450 1453 1454 1456 1459 1465 1468 1468 1471 1474 1476 1478 1477 1475 1477 1478 1479 1484 1490 1490 1492 1496 1495 1492 1494 1496 1497 1499 1500 1501 1507 1515 1517 1513 1516 1522 1527 1532 1536 1535 1533 1533 1532 1533 1535 1530 1518 1504 1493 1486 1483 1481 1480 1479 1479 1478 1477 1477 1477 1477 1477 1477 1477
1373 1377 1381 1386 1390 1394 1399 1403 1406 1411 1416 1422 1428 1433 1436 1435 1430 1431 1436 1438 1438 1439 1438 1438 1443 1450 1454 1454 1454 1454 1458 1462 1465 1469 1472 1472 1472 1472 1471 1473 1475 1477 1483 1489 1487 1485 1486 1481 1478 1479 1482 1485 1490 1491 1493 1502 1512 1513 1510 1514 1516 1512 1514 1522 1527 1524 1526 1532 1533 1530 1520 1504 1495 1488 1482 1482 1481 1477 1476 1475 1474 1474 1473 1473 1474 1473 1474 1475
1372 1376 1380 1383 1387 1391 1396 1400 1404 1409 1413 1419 1425 1427 1426 1423 1420 1422 1426 1429 1433 1435 1438 1442 1443 1448 1454 1454 1456 1457 1456 1458 1463 1467 1470 1470 1468 1466 1465 1466 1468 1471 1475 1480 1481 1483 1485 1480 1474 1477 1480 1480 1481 1485 1490 1497 1504 1508 1511 1511 1508 1506 1507 1516 1525 1525 1525 1530 1527 1520 1512 1501 1497 1489 1479 1479 1477 1472 1471 1471 1471 1471 1470 1471 1470 1469 1471 1472
1369 1373 1377 1379 1383 1388 1393 1398 1402 1407 1411 1416 1419 1418 1417 1416 1415 1416 1418 1421 1427 1429 1433 1439 1439 1442 1449 1451 1453 1455 1456 1460 1463 1464 1467 1470 1467 1464 1465 1464 1463 1466 1468 1471 1474 1474 1477 1478 1474 1475 1478 1475 1475 1481 1486 1487 1489 1499 1506 1504 1503 1510 1509 1510 1521 1527 1531 1531 1522 1514 1508 1503 1503 1493 1478 1477 1477 1469 1466 1467 1469 1468 1467 1468 1467 1467 1468 1468
1365 1370 1374 1376 1380 1386 1391 1396 1401 1405 1409 1413 1414 1412 1412 1414 1414 1415 1416 1418 1423 1426 1429 1434 1435 1436 1440 1445 1448 1450 1452 1456 1459 1461 1463 1465 1461 1457 1462 1465 1462 1463 1465 1469 1475 1473 1472 1477 1478 1475 1474 1475 1477 1484 1490 1490 1489 1492 1495 1493 1498 1510 1512 1509 1514 1521 1526 1526 1514 1507 1506 1501 1496 1485 1472 1471 1472 1467 1464 1465 1467 1466 1465 1464 1464 1465 1465 1465
1364 1370 1373 1375 1379 1385 1390 1395 1399 1403 1406 1408 1409 1410 1410 1412 1412 1413 1414 1416 1419 1423 1425 1428 1431 1434 1435 1437 1440 1444 1447 1448 1451 1455 1456 1457 1455 1450 1452 1457 1459 1461 1462 1465 1472 1472 1470 1476 1478 1475 1474 1477 1479 1483 1488 1491 1492 1491 1492 1493 1494 1498 1501 1500 1499 1502 1509 1513 1505 1501 1502 1492 1478 1471 1467 1464 1463 1464 1464 1463 1463 1463 1461 1460 1461 1462 1463 1463
1362 1367 1371 1373 1378 1383 1389 1395 1398 1399 1401 1401 1402 1405 1407 1408 1410 1412 1413 1414 1417 1420 1422 1422 1426 1430 1432 1432 1434 1438 1442 1442 1444 1449 1448 1448 1450 1448 1446 1449 1452 1456 1459 1463 1467 1468 1470 1473 1475 1476 1477 1476 1475 1473 1473 1478 1484 1487 1491 1494 1492 1492 1496 1496 1493 1492 1496 1502 1501 1499 1493 1474 1461 1462 1462 1460 1460 1460 1459 1458 1458 1458 1457 1458 1459 1459 1460 1461
1360 1365 1368 1371 1376 1382 1388 1394 1394 1394 1397 1398 1399 1403 1406 1406 1407 1411 1412 1413 1416 1418 1418 1420 1422 1425 1426 1428 1430 1433 1438 1440 1441 1444 1444 1443 1444 1444 1442 1443 1446 1449 1455 1461 1463 1465 1469 1471 1473 1477 1476 1470 1466 1461 1458 1461 1466 1469 1473 1477 1478 1483 1490 1495 1497 1494 1491 1492 1493 1495 1485 1460 1449 1455 1455 1453 1455 1452 1451 1453 1454 1455 1455 1456 1456 1457 1459 1459
1357 1363 1366 1368 1374 1380 1384 1388 1389 1390 1394 1394 1394 1398 1402 1403 1405 1409 1411 1413 1416 1417 1417 1419 1422 1422 1422 1422 1424 1428 1433 1437 1438 1439 1439 1439 1437 1437 1437 1439 1441 1443 1446 1451 1455 1457 1461 1465 1470 1474 1471 1467 1464 1460 1459 1461 1461 1464 1468 1469 1471 1477 1482 1489 1494 1491 1489 1488 1485 1492 1487 1457 1442 1448 1448 1447 1449 1447 1447 1451 1452 1453 1453 1454 1455 1456 1457 1457
1356 1361 1364 1367 1373 1377 1380 1384 1386 1388 1391 1390 1391 1395 1398 1401 1404 1406 1409 1412 1415 1415 1415 1417 1420 1421 1420 1420 1421 1424 1428 1432 1433 1433 1434 1435 1433 1431 1432 1435 1439 1441 1442 1445 1450 1454 1459 1462 1467 1471 1471 1469 1468 1464 1462 1463 1464 1468 1471 1469 1470 1474 1473 1476 1479 1479 1484 1484 1482 1493 1489 1456 1439 1444 1444 1443 1446 1446 1447 1449 1450 1451 1451 1452 1453 1454 1455 1456
1356 1360 1364 1368 1372 1374 1377 1379 1380 1385 1390 1390 1392 1396 1399 1401 1403 1403 1406 1409 1411 1412 1412 1415 1418 1419 1419 1419 1419 1419 1422 1426 1429 1429 1430 1432 1431 1429 1430 1432 1434 1437 1439 1439 1442 1449 1454 1458 1462 1467 1470 1471 1472 1469 1466 1467 1467 1468 1469 1469 1469 1470 1472 1475 1476 1478 1481 1478 1477 1488 1481 1452 1439 1444 1444 1443 1446 1446 1447 1447 1448 1448 1449 1450 1451 1452 1453 1454
1355 1361 1366 1369 1370 1372 1374 1375 1374 1378 1385 1388 1390 1394 1398 1401 1403 1402 1402 1405 1408 1408 1408 1411 1416 1418 1418 1419 1419 1418 1418 1419 1423 1426 1428 1429 1429 1428 1429 1430 1431 1432 1433 1434 1437 1443 1448 1451 1453 1456 1456 1456 1457 1455 1452 1454 1460 1462 1463 1465 1464 1463 1466 1469 1471 1477 1476 1468 1468 1474 1464 1446 1442 1444 1443 1444 1445 1445 1446 1446 1446 1446 1447 1448 1449 1450 1451 1452
1352 1359 1365 1369 1370 1371 1373 1375 1373 1374 1379 1383 1387 1392 1394 1398 1402 1402 1402 1405 1406 1406 1405 1408 1413 1418 1419 1418 1419 1420 1418 1418 1420 1422 1424 1426 1427 1426 1426 1428 1429 1429 1430 1433 1436 1441 1447 1448 1448 1449 1444 1439 1439 1439 1436 1438 1447 1452 1453 1453 1453 1452 1453 1456 1463 1467 1463 1458 1462 1459 1449 1445 1446 1443 1442 1443 1443 1443 1444 1444 1445 1445 1445 1446 1447 1448 1449 1450
1350 1355 1359 1364 1368 1371 1373 1375 1375 1375 1377 1379 1383 1388 1391 1394 1398 1402 1403 1404 1404 1403 1404 1406 1410 1414 1417 1416 1417 1419 1419 1419 1420 1418 1420 1423 1424 1425 1425 1425 1427 1428 1430 1432 1433 1437 1442 1443 1444 1449 1446 1439 1440 1442 1438 1436 1440 1440 1440 1444 1446 1448 1452 1456 1458 1455 1452 1458 1461 1451 1445 1447 1445 1442 1441 1441 1440 1442 1442 1441 1440 1440 1441 1442 1444 1446 1447 1448
1351 1354 1356 1357 1362 1368 1370 1373 1375 1377 1378 1379 1382 1386 1388 1391 1395 1398 1401 1403 1403 1401 1402 1407 1409 1409 1411 1412 1413 1416 1419 1419 1419 1418 1419 1421 1422 1424 1425 1425 1426 1426 1429 1432 1431 1431 1436 1438 1439 1445 1446 1441 1442 1445 1442 1439 1438 1434 1432 1436 1439 1444 1449 1451 1449 1444 1446 1454 1450 1440 1442 1445 1441 1441 1440 1435 1435 1436 1436 1436 1435 1436 1439 1440 1441 1443 1444 1446
1351 1354 1357 1357 1360 1364 1367 1371 1373 1377 1380 1381 1383 1386 1388 1390 1393 1395 1396 1400 1402 1401 1400 1404 1408 1408 1410 1410 1409 1413 1417 1417 1418 1419 1418 1418 1418 1421 1424 1425 1425 1425 1427 1430 1428 1426 1429 1432 1435 1443 1446 1443 1442 1444 1444 1443 1441 1438 1436 1436 1437 1439 1440 1439 1438 1436 1438 1443 1439 1435 1441 1440 1433 1433 1432 1428 1431 1434 1434 1436 1437 1437 1439 1440 1441 1442 1442 1443
1352 1355 1357 1358 1361 1365 1368 1371 1373 1376 1379 1380 1382 1386 1388 1389 1392 1394 1395 1397 1400 1402 1400 1402 1405 1408 1410 1410 1408 1411 1414 1414 1416 1418 1416 1416 1416 1416 1419 1420 1421 1424 1426 1426 1426 1424 1424 1427 1433 1441 1446 1443 1440 1442 1443 1443 1441 1438 1436 1436 1438 1442 1442 1439 1436 1434 1438 1442 1437 1435 1441 1434 1420 1421 1426 1427 1432 1435 1434 1435 1436 1436 1438 1438 1439 1439 1438 1439
1354 1356 1356 1358 1364 1368 1370 1372 1373 1375 1378 1380 1381 1385 1387 1388 1390 1392 1394 1395 1395 1398 1399 1400 1403 1406 1408 1409 1408 1409 1411 1412 1413 1414 1414 1416 1415 1414 1415 1416 1417 1421 1422 1422 1424 1423 1424 1429 1433 1440 1443 1439 1438 1440 1440 1440 1441 1438 1434 1435 1438 1442 1442 1438 1433 1429 1432 1435 1433 1435 1436 1423 1411 1416 1424 1427 1430 1432 1431 1431 1433 1433 1434 1435 1434 1434 1434 1436
1355 1357 1357 1358 1365 1371 1371 1372 1373 1374 1378 1380 1381 1383 1385 1387 1389 1389 1392 1395 1394 1394 1396 1397 1399 1403 1407 1409 1407 1406 1408 1409 1410 1411 1413 1415 1416 1415 1415 1415 1417 1419 1420 1422 1423 1423 1425 1429 1433 1438 1437 1431 1431 1436 1437 1439 1440 1434 1428 1426 1428 1430 1430 1429 1427 1422 1420 1423 1426 1427 1419 1408 1409 1417 1422 1423 1425 1426 1424 1425 1427 1428 1429 1431 1432 1431 1432 1433